EHI
0 0 0 0 0 0 0 0 0 0 0 0 0 0 0 0 0 0 0 0 0 1 1 2 2 1 0 1 1 2 3 3 3 3 3 3 3 2 1 0 0 0 0 0 0 0 0 0 0
0 0 0 0 0 0 0 0 0 0 0 0 0 0 0 0 0 0 0 0 1 1 2 3 3 1 1 1 1 1 2 3 3 3 3 3 3 2 2 1 0 0 0 0 0 0 0 0 0
0 0 0 0 0 0 0 0 0 0 0 0 0 0 0 0 0 0 0 0 1 2 3 3 3 2 1 1 0 0 2 3 4 3 3 4 4 3 2 1 0 0 0 0 0 0 0 0 0
0 0 0 0 0 0 0 0 0 0 0 0 0 0 0 0 0 0 0 0 1 2 3 3 3 2 1 0 0 1 2 3 4 4 4 5 5 3 1 0 0 0 0 0 0 0 0 0 0
0 0 0 0 0 0 0 0 0 0 0 0 0 0 0 0 0 0 0 1 2 2 1 2 3 2 1 0 1 2 4 4 5 5 4 4 3 2 1 1 0 0 0 0 0 0 0 0 0
0 0 0 0 0 0 0 0 0 0 0 0 0 0 0 0 0 0 0 2 3 2 1 1 2 2 1 1 2 4 5 6 6 5 4 2 1 1 3 2 1 0 0 0 0 0 0 1 1
0 0 0 0 0 0 0 0 0 0 0 0 0 0 0 0 0 0 0 2 3 3 1 1 2 2 2 3 5 7 7 6 6 4 3 1 0 1 2 2 1 0 0 0 0 0 0 0 0
0 0 0 0 0 0 0 0 0 0 0 0 0 0 0 0 0 0 1 2 3 3 2 1 1 1 2 3 6 8 7 5 3 2 1 0 0 0 1 1 0 0 0 0 0 1 0 0 0
0 0 0 0 0 0 0 0 0 0 0 0 0 0 0 0 0 0 1 2 3 3 3 1 1 0 1 2 5 6 4 2 1 0 0 0 0 0 0 0 0 0 0 0 0 0 0 0 0
0 0 0 0 0 0 0 0 0 0 0 0 0 0 0 0 0 0 0 1 2 3 3 3 2 1 1 2 3 3 1 0 0 0 0 0 0 0 0 0 0 0 0 0 0 0 0 0 0
0 0 0 0 0 0 0 0 0 0 0 0 0 0 0 0 0 0 0 0 1 3 3 3 3 1 1 2 2 1 0 0 0 0 0 0 0 0 0 0 0 0 0 0 0 0 0 0 0
0 0 0 0 0 0 0 0 0 0 0 0 0 0 0 0 0 0 0 0 1 2 3 3 3 2 1 1 1 0 0 0 0 0 0 0 0 0 0 0 0 0 0 0 0 0 0 0 0
0 0 0 0 0 0 0 0 0 0 0 0 0 0 0 0 0 0 0 0 0 1 2 2 2 2 2 1 0 0 0 0 0 0 0 0 0 0 0 0 0 0 0 0 0 0 0 0 0
0 0 0 0 0 0 0 0 0 0 0 0 0 0 0 0 0 0 0 0 0 0 1 1 1 1 1 1 0 0 0 0 0 0 0 0 0 0 0 0 0 0 0 0 0 0 0 0 0
0 0 0 0 0 0 0 0 0 0 0 0 0 0 0 0 0 0 0 0 0 0 0 0 0 0 0 0 0 0 0 0 0 0 0 0 0 0 0 0 0 0 0 0 0 0 0 0 0
0 0 0 0 0 0 0 0 0 0 0 0 0 0 0 0 0 0 0 0 0 0 0 0 0 0 0 0 0 0 0 0 0 0 0 0 0 0 0 0 0 0 0 0 0 0 0 0 0
0 0 0 0 0 0 0 0 0 0 0 0 0 0 0 0 0 0 0 0 0 0 0 0 0 0 0 0 0 0 0 0 0 0 0 0 0 0 0 0 0 0 0 0 0 0 0 0 0
0 0 0 0 0 0 0 0 0 0 0 0 0 0 0 0 0 0 0 0 0 0 0 0 0 0 0 0 0 0 0 0 0 0 0 0 0 0 0 0 0 0 0 0 0 0 0 0 0
0 0 0 0 0 0 0 0 0 0 0 0 0 0 0 0 0 0 0 0 0 0 0 0 0 0 0 0 0 0 0 0 0 0 0 0 0 0 0 0 0 0 0 0 0 0 0 0 0
0 0 0 0 0 0 0 0 0 0 0 0 0 0 0 0 0 0 0 0 0 0 0 0 0 0 0 0 0 0 0 0 0 0 0 0 0 0 0 0 0 0 0 0 0 0 0 0 0
0 0 0 0 0 0 0 0 0 0 0 0 0 0 0 0 0 0 0 0 0 0 0 0 0 0 0 0 0 0 0 0 0 0 0 0 0 0 0 0 0 0 0 0 0 0 0 0 0
0 0 0 0 0 0 0 0 0 0 0 0 0 0 0 0 0 0 0 0 0 0 0 0 0 0 0 0 0 0 0 0 0 0 0 0 0 0 0 0 0 0 0 0 0 0 0 0 0
0 0 0 0 0 0 0 0 0 0 0 0 0 0 0 0 0 0 0 0 0 0 0 0 0 0 0 0 0 0 0 0 0 0 0 0 0 0 0 0 0 0 0 0 0 0 0 0 0
0 0 0 0 0 0 0 0 0 0 0 0 0 0 0 0 0 0 0 0 0 0 0 0 0 0 0 0 0 0 0 0 0 0 0 0 0 0 0 0 0 0 0 0 0 0 0 0 0
0 0 0 0 0 0 0 0 0 0 0 0 0 0 0 0 0 0 0 0 0 0 0 0 0 0 0 0 0 0 0 0 0 0 0 0 0 0 0 0 0 0 0 0 0 0 0 0 0
0 0 0 0 0 0 0 0 0 0 0 0 0 0 0 0 0 0 0 0 0 0 0 0 0 0 0 0 0 0 0 0 0 0 0 0 0 0 0 0 0 0 0 0 0 0 0 0 0
0 0 0 0 0 0 0 0 0 0 0 0 0 0 0 0 0 0 0 0 0 0 0 0 0 0 0 0 0 0 0 0 0 0 0 0 0 0 0 0 0 0 0 0 0 0 0 0 0
0 0 0 0 0 0 0 0 0 0 0 0 0 0 0 0 0 0 0 0 0 0 0 0 0 0 0 0 0 0 0 0 0 0 0 0 0 0 0 0 0 0 0 0 0 0 0 0 0
0 0 0 0 0 0 0 0 0 0 0 0 0 0 0 0 0 0 0 0 0 0 0 0 0 0 0 0 0 0 0 0 0 0 0 0 0 0 0 0 0 0 0 0 0 0 0 0 0
0 0 0 0 0 0 0 0 0 0 0 0 0 0 0 0 0 0 0 0 0 0 0 0 0 0 0 0 0 0 0 0 0 0 0 0 0 0 0 0 0 0 0 0 0 0 0 0 0
Wind_Speed
5 2 3 4 6 4 3 4 2 2 2 1 1 3 5 5 4 3 1 2 2 2 1 1 4 6 7 7 7 8 9 9 10 10 11 11 11 11 11 11 12 12 12 12 13 13 13 14 14
1 1 5 6 5 2 5 4 4 3 3 3 3 3 3 1 1 2 1 2 2 3 2 2 5 7 7 8 8 8 9 9 9 10 10 10 10 11 11 11 11 11 11 12 12 13 13 13 13
1 3 5 5 4 6 5 3 4 1 2 2 2 2 2 1 1 1 1 0 3 4 3 3 6 7 8 8 8 8 8 9 9 10 10 10 10 10 11 11 11 11 11 11 12 13 13 12 12
3 5 6 4 4 5 4 2 3 3 1 2 3 2 1 2 1 1 1 3 5 4 4 3 7 7 7 8 8 8 8 8 9 9 9 10 10 10 11 11 10 10 11 11 11 12 12 12 12
5 5 4 0 5 4 3 2 3 3 2 1 3 3 1 2 2 3 3 4 5 4 4 3 6 7 7 8 8 8 8 9 9 9 9 10 10 10 10 10 10 10 10 10 10 11 11 11 11
5 5 4 4 6 3 2 2 3 2 2 2 3 3 2 1 2 3 4 4 4 4 4 4 6 7 7 7 8 8 8 8 9 8 9 9 9 9 9 9 10 10 10 9 10 10 10 11 11
5 5 4 5 4 4 3 3 4 4 3 3 4 4 1 0 1 3 4 4 4 5 5 4 5 5 6 7 7 8 8 8 8 9 8 8 9 9 9 8 8 9 9 9 9 9 10 10 10
5 5 3 3 4 5 2 2 1 4 3 1 4 5 4 3 3 4 5 4 4 4 4 4 5 5 4 4 7 8 8 9 8 9 9 9 8 8 8 8 8 8 8 9 9 10 10 10 10
4 4 5 6 6 4 2 2 0 1 3 2 1 1 1 6 6 6 4 3 3 3 3 4 4 4 4 4 6 6 7 9 9 7 9 8 5 5 5 7 8 8 9 9 9 10 11 11 10
4 4 7 4 4 3 2 3 3 2 1 1 0 2 4 7 8 7 5 5 4 3 2 2 3 4 4 4 4 4 4 5 5 5 5 4 4 4 6 8 9 9 9 9 10 11 10 8 5
4 6 3 1 1 1 2 1 2 4 4 5 5 5 7 7 7 7 6 5 4 4 3 2 3 3 4 3 3 2 2 3 4 5 5 4 4 4 4 3 4 5 6 5 6 6 5 5 4
3 2 1 1 1 1 2 2 1 3 5 2 4 7 9 9 9 8 7 5 4 3 3 2 3 3 3 3 3 2 2 2 3 3 4 3 2 3 3 3 3 3 3 3 4 3 4 5 4
2 2 1 0 1 1 1 1 2 3 1 2 6 7 8 9 8 5 4 4 3 4 3 3 3 3 3 3 2 3 2 2 3 3 3 3 3 2 2 2 2 3 3 3 3 3 4 4 4
2 1 1 1 0 0 1 2 2 4 1 3 5 6 7 8 7 5 4 5 5 5 4 3 3 3 3 3 2 2 2 2 2 2 3 3 2 2 2 2 2 2 2 2 2 3 3 3 3
2 1 2 1 1 0 0 4 5 3 3 3 3 4 4 5 5 6 7 6 7 6 5 4 4 3 4 3 3 2 2 2 2 2 2 3 3 2 2 2 2 2 2 3 3 3 3 3 3
2 1 2 2 1 1 2 8 3 2 4 3 3 3 4 4 5 5 5 5 5 5 5 5 4 4 4 3 3 2 2 2 2 2 2 2 3 3 2 1 1 1 2 2 2 2 2 2 2
2 1 3 3 1 1 3 7 4 1 3 4 4 4 4 4 4 4 4 4 5 6 6 6 5 5 4 3 2 2 2 2 1 2 1 2 2 2 2 1 1 1 2 2 2 2 2 2 2
4 3 3 4 2 1 4 8 6 2 3 5 4 4 4 5 7 4 3 3 4 5 5 6 5 5 4 3 2 2 2 1 1 1 1 2 2 2 2 1 1 1 2 2 2 2 2 1 1
3 3 4 4 1 1 6 9 9 5 4 6 6 5 5 7 5 3 3 3 2 3 4 5 5 5 4 3 3 2 2 1 1 1 1 2 2 2 2 1 1 1 1 1 2 2 2 2 1
2 3 4 3 1 2 5 10 8 5 6 6 6 6 6 5 2 2 3 3 4 4 5 5 6 6 6 4 3 2 2 2 2 2 2 2 2 2 2 2 1 1 1 2 2 2 1 1 1
3 5 4 4 3 1 4 8 5 4 3 3 4 4 4 6 5 4 3 4 4 5 5 5 6 5 5 4 3 2 2 1 1 1 1 1 2 2 2 2 2 2 1 2 3 3 3 2 0
4 2 2 2 1 4 0 7 6 4 4 4 4 3 4 4 4 3 3 4 5 5 5 4 5 5 5 5 5 5 4 3 3 2 2 2 2 2 3 3 2 2 2 2 3 3 2 3 2
2 0 1 1 2 3 1 4 9 2 5 6 4 4 4 3 3 3 3 4 4 3 4 3 4 4 5 5 5 5 4 3 2 2 3 3 2 2 3 3 3 3 2 3 3 3 3 2 3
2 3 3 3 3 4 5 5 9 3 4 4 3 3 4 4 2 2 1 1 1 1 2 2 3 4 4 5 5 5 5 4 3 3 3 3 2 2 3 3 3 3 3 3 3 3 4 4 3
3 4 3 4 2 6 2 4 10 4 2 2 3 3 4 4 3 3 2 2 1 1 2 2 3 4 4 5 5 5 5 5 6 5 5 4 3 3 4 4 4 4 4 4 3 3 4 5 5
3 5 5 5 5 5 2 7 7 2 2 2 1 2 3 4 4 4 3 2 2 2 2 2 3 3 4 5 5 4 4 4 4 5 4 5 4 4 4 5 4 4 4 4 4 3 4 4 5
3 3 3 3 1 3 6 7 8 2 3 4 3 4 4 4 4 4 4 3 3 2 2 2 3 3 3 4 4 4 4 4 5 5 4 4 4 4 4 5 5 5 5 5 5 4 4 4 5
2 5 3 3 3 5 6 5 5 5 4 4 3 3 4 4 4 5 4 4 4 2 2 1 2 3 3 3 4 4 4 5 4 4 5 5 5 4 4 5 5 5 5 5 5 4 4 5 5
3 2 3 3 3 4 5 7 3 3 3 3 3 3 4 5 5 5 5 5 4 4 3 2 2 2 2 3 3 3 4 4 4 5 5 5 5 5 6 6 5 6 6 5 5 5 5 6 5
3 4 5 4 5 4 4 8 2 2 3 2 3 4 4 5 5 5 5 4 4 5 4 3 3 2 3 3 3 4 3 3 4 5 5 5 6 6 6 6 6 6 6 6 6 6 6 7 7
Wind_Direction
356 32 71 59 60 57 231 240 211 197 203 163 106 127 145 149 160 179 353 8 47 98 92 103 105 101 95 94 92 92 91 88 86 86 85 85 84 83 83 83 82 80 78 79 80 79 77 76 76
16 65 58 63 100 184 253 233 211 214 174 115 69 82 102 121 45 84 345 334 62 90 74 71 100 103 97 93 94 98 96 92 89 86 86 85 85 83 82 82 83 80 78 79 79 79 77 77 77
86 58 83 84 139 192 222 216 204 167 115 130 98 56 116 147 139 173 301 55 75 72 61 64 94 100 100 96 91 95 97 94 92 89 86 86 84 83 82 82 81 79 79 80 80 79 78 77 78
84 54 60 89 211 224 215 217 172 142 87 92 127 104 65 20 197 212 80 98 88 68 55 67 92 93 95 99 95 92 92 94 92 90 87 86 84 82 80 80 79 78 78 80 82 82 81 79 80
62 82 84 197 239 244 240 230 162 161 174 149 143 145 163 9 38 92 106 102 98 74 52 61 93 95 91 88 89 93 91 90 91 90 88 84 82 81 79 77 76 76 78 80 83 83 82 81 81
64 77 120 218 239 252 253 206 149 163 172 141 147 147 184 35 85 110 109 102 94 84 63 58 89 90 89 86 83 83 89 90 88 88 87 84 81 78 78 77 77 76 75 79 81 81 82 81 80
112 116 179 200 225 250 233 159 160 171 183 202 170 146 207 239 160 118 104 94 83 79 71 58 58 66 74 79 82 80 78 82 83 81 80 79 76 74 74 73 76 76 76 75 77 78 81 80 77
126 119 170 202 206 241 208 156 182 166 189 147 143 159 207 201 148 110 95 87 82 74 72 64 57 58 57 60 73 73 69 69 72 71 69 68 66 66 66 63 69 73 75 74 75 74 78 77 73
95 99 210 208 194 223 173 161 128 100 114 95 93 165 163 132 132 115 98 85 87 81 69 70 65 61 59 60 62 62 64 63 61 60 63 63 51 48 49 53 64 70 72 73 74 72 71 68 67
104 176 221 208 191 186 176 178 170 130 133 169 115 61 108 131 145 147 150 156 155 149 109 82 84 76 70 67 62 53 54 55 53 52 55 55 53 50 53 52 55 61 66 68 69 68 65 57 45
150 195 214 227 190 154 165 195 168 156 214 212 197 171 145 151 161 170 175 174 174 166 141 112 103 92 86 80 76 63 57 57 54 53 53 58 58 51 48 49 42 42 52 52 54 55 48 46 42
159 231 204 239 129 135 179 169 183 204 221 206 172 151 156 168 182 187 185 183 169 160 158 135 118 106 98 93 86 81 71 69 62 52 56 63 65 57 51 50 42 42 42 50 48 51 50 49 47
188 226 169 143 88 88 101 214 221 249 268 83 117 138 165 179 191 197 188 177 172 175 171 160 138 130 119 106 97 91 83 82 78 68 58 62 73 72 64 59 52 48 50 57 56 57 57 52 45
190 181 280 325 302 198 198 251 219 254 140 114 135 168 185 190 191 187 188 191 190 187 183 169 155 146 132 122 119 113 106 101 91 79 70 70 70 75 79 73 64 54 54 58 65 66 65 58 51
111 51 327 290 166 209 88 282 230 234 138 157 180 190 202 211 202 202 202 201 198 191 181 174 167 151 145 138 134 122 121 114 109 95 82 78 73 70 77 86 73 56 57 64 66 62 63 61 50
81 65 284 286 166 206 158 259 257 200 167 210 216 213 216 225 221 220 213 206 196 185 182 181 173 161 160 148 139 131 128 125 121 107 101 95 87 79 70 85 79 58 69 73 78 69 67 56 44
49 223 248 283 196 138 188 252 268 204 183 232 234 226 227 239 241 235 218 203 194 190 184 183 174 168 168 153 137 131 133 132 131 131 128 118 103 94 89 76 84 84 80 74 82 67 70 69 47
216 220 239 249 270 181 230 256 272 251 220 241 245 238 236 240 242 230 214 195 190 188 186 184 176 170 162 147 127 118 119 127 134 152 156 141 132 120 109 92 69 105 101 82 78 83 66 79 65
167 188 237 256 278 241 246 264 270 263 246 252 251 243 244 248 254 225 205 186 165 177 181 184 179 174 162 161 166 165 181 178 180 182 165 172 158 142 135 114 91 107 136 142 120 102 89 59 41
195 232 251 275 298 253 276 276 266 246 236 235 237 239 242 254 267 229 208 191 189 191 194 187 187 182 181 179 175 170 166 182 189 185 170 185 171 156 167 157 167 134 146 149 145 120 119 74 48
227 218 232 259 321 308 313 293 266 265 254 258 250 250 249 236 234 225 210 207 202 203 203 202 191 184 186 173 149 122 103 95 141 186 189 188 189 178 182 180 175 171 165 189 184 176 153 155 188
241 225 226 250 293 282 310 288 278 265 285 268 266 269 267 262 238 223 217 217 213 214 207 204 193 182 180 172 171 170 180 194 203 196 196 198 194 203 197 185 184 188 190 207 201 182 178 162 177
201 39 229 247 206 291 257 247 282 306 278 271 276 279 284 279 249 233 225 224 225 215 204 200 195 184 180 180 183 187 198 201 193 186 195 202 204 209 213 197 193 199 203 210 217 192 182 183 183
128 59 36 49 79 272 223 201 278 243 250 291 315 322 322 323 311 289 267 240 248 225 205 199 197 194 185 185 186 192 198 192 189 200 206 209 213 214 219 215 203 204 208 214 217 207 193 194 193
91 89 18 343 323 252 203 218 253 259 272 275 289 311 330 339 347 343 339 324 285 241 214 205 200 212 194 191 196 201 202 197 201 204 208 210 215 221 219 221 216 213 215 217 216 213 208 197 197
184 151 171 217 240 280 258 238 254 281 320 321 306 325 345 350 353 348 333 318 298 264 233 213 209 223 204 197 207 208 207 206 213 212 210 213 218 221 214 217 222 222 217 216 208 215 218 209 205
150 199 170 142 241 276 263 277 299 333 359 1 351 355 351 352 356 351 348 342 324 298 259 230 222 233 223 209 213 213 212 215 220 219 216 220 223 224 211 213 216 221 219 214 206 216 216 215 214
145 147 112 148 210 257 279 270 270 305 310 325 334 335 334 344 350 349 349 346 340 332 320 296 236 234 242 221 218 230 226 226 224 217 220 220 221 221 215 218 216 219 223 217 209 216 216 213 223
126 130 150 163 187 200 266 267 244 268 294 285 298 325 333 337 339 342 345 347 347 348 344 331 296 268 259 234 228 232 234 231 226 226 225 223 220 215 217 217 217 216 219 216 211 213 214 215 222
169 181 163 180 232 209 230 266 328 328 332 326 317 328 332 333 334 336 338 345 350 347 343 332 317 294 273 248 237 241 243 234 231 235 233 225 223 219 218 215 217 219 218 214 213 215 216 216 219